Time,TemperatureF,DewpointF,PressureIn,WindDirection,WindDirectionDegrees,WindSpeedMPH,WindSpeedGustMPH,Humidity,HourlyPrecipIn,Conditions,Clouds,dailyrainin,SoftwareType,DateUTC
2013-03-23 00:00:00,24.5,22.0,29.99,West,280,6.0,9.0,90,0.00,,---,0.00,VWS V14.01,2013-03-23 04:00:00,
2013-03-23 00:30:00,24.9,22.1,29.99,NW,309,4.0,7.0,89,0.00,,---,0.00,VWS V14.01,2013-03-23 04:30:00,
2013-03-23 01:00:00,24.3,21.8,30.00,West,271,3.0,8.0,90,0.00,,---,0.00,VWS V14.01,2013-03-23 05:00:00,
2013-03-23 01:30:00,23.8,21.6,30.00,WNW,287,4.0,6.0,91,0.00,,---,0.00,VWS V14.01,2013-03-23 05:30:00,
2013-03-23 02:00:00,22.7,20.7,30.00,West,265,5.0,6.0,92,0.00,,---,0.00,VWS V14.01,2013-03-23 06:00:00,
2013-03-23 02:30:00,23.4,21.7,30.00,WNW,293,3.0,7.0,93,0.00,,---,0.00,VWS V14.01,2013-03-23 06:30:00,
2013-03-23 03:00:00,22.9,20.9,30.01,WNW,294,3.0,5.0,92,0.00,,---,0.00,VWS V14.01,2013-03-23 07:00:00,
2013-03-23 03:30:00,23.3,21.3,30.00,WNW,294,0.0,3.0,92,0.00,,---,0.00,VWS V14.01,2013-03-23 07:30:00,
2013-03-23 04:00:00,22.9,20.9,30.00,WNW,294,1.0,3.0,92,0.00,,---,0.00,VWS V14.01,2013-03-23 08:00:00,
2013-03-23 04:30:00,21.5,19.8,30.00,WNW,290,4.0,5.0,93,0.00,,---,0.00,VWS V14.01,2013-03-23 08:30:00,
2013-03-23 05:00:00,20.3,18.6,30.00,WNW,290,1.0,4.0,93,0.00,,---,0.00,VWS V14.01,2013-03-23 09:00:00,
2013-03-23 05:30:00,20.7,19.2,30.01,WNW,296,3.0,5.0,94,0.00,,---,0.00,VWS V14.01,2013-03-23 09:30:00,
2013-03-23 06:00:00,21.7,20.2,30.02,WNW,296,3.0,3.0,94,0.00,,---,0.00,VWS V14.01,2013-03-23 10:00:00,
2013-03-23 06:30:00,19.8,18.4,30.03,WNW,296,2.0,3.0,94,0.00,,---,0.00,VWS V14.01,2013-03-23 10:30:00,
2013-03-23 07:00:00,17.3,15.9,30.04,West,271,5.0,5.0,94,0.00,,---,0.00,VWS V14.01,2013-03-23 11:00:00,
2013-03-23 07:30:00,18.6,17.4,30.05,WSW,257,3.0,7.0,95,0.00,,---,0.00,VWS V14.01,2013-03-23 11:30:00,
2013-03-23 08:00:00,18.9,17.7,30.06,WNW,295,0.0,4.0,95,0.00,,---,0.00,VWS V14.01,2013-03-23 12:00:00,
2013-03-23 08:30:00,18.8,17.4,30.07,WNW,295,0.0,0.0,94,0.00,,---,0.00,VWS V14.01,2013-03-23 12:30:00,
2013-03-23 09:00:00,19.3,17.6,30.06,SW,227,2.0,3.0,93,0.00,,---,0.00,VWS V14.01,2013-03-23 13:00:00,
2013-03-23 09:30:00,20.2,17.7,30.06,South,183,3.0,4.0,90,0.00,,---,0.00,VWS V14.01,2013-03-23 13:30:00,
2013-03-23 10:00:00,22.2,19.7,30.06,WSW,247,5.0,6.0,90,0.00,,---,0.00,VWS V14.01,2013-03-23 14:00:00,
2013-03-23 10:30:00,22.6,19.9,30.07,WSW,257,6.0,7.0,89,0.00,,---,0.00,VWS V14.01,2013-03-23 14:30:00,
2013-03-23 11:00:00,25.1,21.2,30.07,WSW,242,7.0,9.0,85,0.00,,---,0.00,VWS V14.01,2013-03-23 15:00:00,
2013-03-23 11:30:00,27.1,21.8,30.07,SW,231,6.0,9.0,80,0.00,,---,0.00,VWS V14.01,2013-03-23 15:30:00,
2013-03-23 12:00:00,27.5,22.7,30.06,SW,225,5.0,8.0,82,0.00,,---,0.00,VWS V14.01,2013-03-23 16:00:00,
2013-03-23 12:30:00,29.4,24.0,30.06,SSW,201,7.0,8.0,80,0.00,,---,0.00,VWS V14.01,2013-03-23 16:30:00,
2013-03-23 13:00:00,31.0,24.6,30.06,SSW,194,7.0,9.0,77,0.00,,---,0.00,VWS V14.01,2013-03-23 17:00:00,
2013-03-23 13:30:00,32.1,25.1,30.06,South,183,8.0,11.0,75,0.00,,---,0.00,VWS V14.01,2013-03-23 17:30:00,
2013-03-23 14:00:00,33.9,25.2,30.05,SW,226,7.0,11.0,70,0.00,,---,0.00,VWS V14.01,2013-03-23 18:00:00,
2013-03-23 14:30:00,34.1,24.7,30.05,SW,228,6.0,11.0,68,0.00,,---,0.00,VWS V14.01,2013-03-23 18:30:00,
2013-03-23 15:00:00,34.9,23.6,30.04,WSW,241,4.0,7.0,63,0.00,,---,0.00,VWS V14.01,2013-03-23 19:00:00,
2013-03-23 15:30:00,35.9,24.9,30.03,WNW,298,11.0,12.0,64,0.00,,---,0.00,VWS V14.01,2013-03-23 19:30:00,
2013-03-23 16:00:00,35.8,24.1,30.03,WNW,289,11.0,17.0,62,0.00,,---,0.00,VWS V14.01,2013-03-23 20:00:00,
2013-03-23 16:30:00,35.4,24.1,30.04,WNW,287,16.0,21.0,63,0.00,,---,0.00,VWS V14.01,2013-03-23 20:30:00,
2013-03-23 17:00:00,34.8,24.2,30.04,WNW,287,19.0,24.0,65,0.00,,---,0.00,VWS V14.01,2013-03-23 21:00:00,
2013-03-23 17:30:00,34.8,24.6,30.04,West,281,17.0,23.0,66,0.00,,---,0.00,VWS V14.01,2013-03-23 21:30:00,
2013-03-23 18:00:00,34.2,24.0,30.04,NW,315,15.0,21.0,66,0.00,,---,0.00,VWS V14.01,2013-03-23 22:00:00,
2013-03-23 18:30:00,33.4,24.0,30.05,NW,320,14.0,18.0,68,0.00,,---,0.00,VWS V14.01,2013-03-23 22:30:00,
2013-03-23 19:00:00,33.3,23.2,30.05,NW,315,13.0,16.0,66,0.00,,---,0.00,VWS V14.01,2013-03-23 23:00:00,
2013-03-23 19:30:00,32.3,22.9,30.05,NNW,331,12.0,16.0,68,0.00,,---,0.00,VWS V14.01,2013-03-23 23:30:00,
2013-03-23 20:00:00,30.4,23.4,30.06,NW,306,8.0,13.0,75,0.00,,---,0.00,VWS V14.01,2013-03-24 00:00:00,
2013-03-23 20:30:00,29.6,22.7,30.07,WNW,291,8.0,12.0,75,0.00,,---,0.00,VWS V14.01,2013-03-24 00:30:00,
2013-03-23 21:00:00,29.2,22.6,30.08,WNW,296,9.0,11.0,76,0.00,,---,0.00,VWS V14.01,2013-03-24 01:00:00,
2013-03-23 21:30:00,27.9,22.5,30.08,West,272,11.0,11.0,80,0.00,,---,0.00,VWS V14.01,2013-03-24 01:30:00,
2013-03-23 22:00:00,27.9,22.8,30.08,WNW,289,9.0,12.0,81,0.00,,---,0.00,VWS V14.01,2013-03-24 02:00:00,
2013-03-23 22:30:00,27.6,23.1,30.08,WNW,285,7.0,9.0,83,0.00,,---,0.00,VWS V14.01,2013-03-24 02:30:00,
2013-03-23 23:00:00,27.4,23.2,30.08,WNW,293,4.0,8.0,84,0.00,,---,0.00,VWS V14.01,2013-03-24 03:00:00,
2013-03-23 23:30:00,27.3,23.4,30.08,WNW,296,4.0,6.0,85,0.00,,---,0.00,VWS V14.01,2013-03-24 03:30:00,